Hourly Data Report for July 30, 2021

CAPE RACE (AUT)
NEWFOUNDLAND
Current Station Operator: ECCC - MSC

46°39'36.000" N
53°04'35.000" W
26.50 m
8401000
71800
WRA

Download Data

Hourly Data (July 2021)
Hourly Data Report for July 30, 2021
TIME
LST
Temp Definition
°C
Dew Point Definition
°C
Rel Hum Definition
%
Precip. Amount Definition
mm

Wind Dir Definition
10's deg

Wind Spd Definition
km/h
Visibility Definition
km
Stn Press Definition
kPa
Hmdx Definition


Wind Chill Definition


Weather Definition


00:30 12.5 LegendMM LegendMM LegendMM 24 20   101.12     LegendNANA
01:30 12.3 LegendMM LegendMM LegendMM 26 20   101.18     LegendNANA
02:30 12.8 LegendMM LegendMM LegendMM 26 20   101.15     LegendNANA
03:30 13.9 LegendMM LegendMM LegendMM 24 20   101.22     LegendNANA
04:30 14.0 LegendMM LegendMM LegendMM 26 23   101.21     LegendNANA
05:30 14.4 LegendMM LegendMM LegendMM 24 21   101.26     LegendNANA
06:30 14.9 LegendMM LegendMM LegendMM 23 18   101.32     LegendNANA
07:30 15.4 LegendMM LegendMM LegendMM 24 20   101.33     LegendNANA
08:30 13.8 LegendMM LegendMM LegendMM 21 10   101.32     LegendNANA
09:30 14.9 LegendMM LegendMM LegendMM 19 8   101.35     LegendNANA
10:30 14.2 LegendMM LegendMM LegendMM 20 16   101.34     LegendNANA
11:30 15.4 LegendMM LegendMM LegendMM 20 16   101.38     LegendNANA
12:30 15.9 LegendMM LegendMM LegendMM 20 13   101.36     LegendNANA
13:30 15.2 LegendMM LegendMM LegendMM 20 16   101.36     LegendNANA
14:30 15.3 LegendMM LegendMM LegendMM 19 10   101.33     LegendNANA
15:30 15.7 LegendMM LegendMM LegendMM 16 10   101.28     LegendNANA
16:30 15.3 LegendMM LegendMM LegendMM 12 9   101.23     LegendNANA
17:30 14.5 LegendMM LegendMM LegendMM 13 9   101.17     LegendNANA
18:30 14.0 LegendMM LegendMM LegendMM 13 12   101.06     LegendNANA
19:30 13.7 LegendMM LegendMM LegendMM 14 22   100.90     LegendNANA
20:30 14.0 LegendMM LegendMM LegendMM 15 28   100.78     LegendNANA
21:30 14.4 LegendMM LegendMM LegendMM 16 37   100.69     LegendNANA
22:30 14.4 LegendMM LegendMM LegendMM 16 38   100.61     LegendNANA
23:30 14.5 LegendMM LegendMM LegendMM 17 46   100.55     LegendNANA

Notes on Data Quality.

Legend

  • E = Estimated
  • M = Missing
  • NA = Not Available*
  • [empty] = Indicates an unobserved value
Date modified: